Wind_Speed
32 32 32 32 32 33 32 30 28 27 26 26 26 26 27 26 25 24 23 21 21 21 21 19 19 18 18 17 17 16 16 16 15 15 15 15 15 14 14 13 13 12 12 11 11 10 10 9 9
33 33 33 33 34 35 33 31 29 28 28 28 28 28 29 29 27 25 24 23 22 22 22 22 21 21 20 20 19 19 18 18 18 17 17 16 16 16 15 15 15 14 14 13 13 12 12 11 10
34 34 34 35 35 34 33 31 30 29 30 30 30 31 31 30 29 27 26 25 24 24 24 23 23 23 23 22 21 21 21 21 20 19 19 18 18 18 17 17 17 16 15 15 15 14 14 13 12
34 34 36 36 36 34 33 32 31 30 31 31 32 32 31 31 30 29 28 27 26 26 25 25 24 24 24 24 24 23 23 22 22 22 21 20 20 19 19 19 18 18 17 16 16 16 15 15 14
34 35 36 37 36 35 34 33 32 32 32 32 33 33 32 31 31 30 30 29 28 27 27 26 25 25 25 24 25 25 25 24 24 23 22 22 22 21 21 21 20 20 19 18 18 17 16 16 16
33 34 35 36 36 35 34 33 33 33 33 33 34 34 34 32 32 31 30 30 30 29 28 27 26 26 26 26 26 26 26 26 26 25 24 24 24 23 23 22 22 22 21 20 19 19 19 18 18
34 35 36 36 36 37 37 36 36 36 35 36 36 36 35 35 34 33 32 32 32 31 31 29 28 27 27 27 27 27 27 27 27 27 26 26 25 25 25 24 24 24 23 22 22 21 21 21 20
34 35 35 36 37 38 38 38 38 38 38 38 39 38 37 37 36 35 35 34 34 33 32 31 31 30 29 28 28 28 29 29 28 28 28 27 27 27 27 26 26 26 25 25 25 24 24 23 22
34 35 36 36 37 38 39 39 39 39 40 40 41 40 39 38 38 38 36 35 35 35 34 33 32 32 31 31 30 30 30 30 30 29 29 29 28 28 28 28 28 27 27 27 27 27 26 26 25
34 36 37 37 38 38 39 40 40 41 41 42 42 42 41 41 39 39 38 36 36 36 35 35 34 34 33 33 32 32 32 32 31 31 30 30 30 29 29 29 29 29 29 29 29 29 28 28 28
34 35 37 38 38 39 41 41 42 43 43 43 43 43 43 42 41 41 40 39 36 36 37 37 36 36 36 35 34 34 34 34 33 33 32 32 31 31 31 30 29 29 30 30 30 30 30 30 29
34 34 35 37 38 39 40 41 42 43 43 43 43 43 43 42 42 42 41 40 39 39 39 38 38 38 38 37 36 35 35 35 35 35 34 34 33 32 31 31 30 31 31 31 31 31 31 31 31
33 33 34 34 35 36 38 39 41 41 42 42 43 43 44 42 42 42 42 41 41 41 41 40 40 40 39 39 39 37 37 37 36 36 36 35 35 34 33 32 31 31 32 32 32 33 32 33 33
31 31 32 32 34 34 35 36 38 39 41 41 42 41 42 42 42 41 42 42 41 41 41 41 42 42 41 41 41 40 38 37 38 37 37 37 36 35 34 33 33 32 33 33 34 34 34 34 34
29 31 31 31 31 33 35 36 37 37 38 40 41 41 41 41 42 41 42 44 43 42 42 41 42 43 43 42 42 41 40 39 39 39 39 39 37 37 37 36 35 34 33 34 35 35 35 35 35
26 29 30 30 30 31 34 36 35 36 37 38 39 40 40 41 41 42 43 43 43 43 43 43 42 43 44 43 43 42 41 41 41 40 40 40 39 38 38 38 37 36 35 35 36 36 36 37 37
25 26 28 29 29 30 32 34 33 35 37 38 38 39 39 40 41 41 41 42 42 43 43 44 44 44 44 45 44 43 43 43 42 41 41 41 40 40 39 40 39 38 38 38 38 38 37 38 38
23 25 27 27 28 29 30 31 32 34 36 36 36 37 38 38 39 39 40 42 43 42 43 43 44 45 45 46 45 44 43 43 43 43 42 42 41 41 40 39 40 40 40 40 40 40 40 39 39
22 23 25 25 27 29 29 30 31 32 34 34 36 36 36 37 37 39 40 42 43 43 42 43 44 44 45 45 45 45 44 43 43 43 43 42 41 41 41 41 41 41 40 40 41 41 41 41 40
21 23 24 25 26 28 29 28 29 30 31 32 34 35 35 35 36 38 39 39 40 42 41 41 43 43 43 44 44 46 46 44 44 43 43 43 43 42 42 41 41 41 41 40 41 41 41 41 41
20 22 22 24 24 26 26 26 28 29 29 31 32 33 34 34 36 38 39 39 40 41 42 41 41 42 43 43 44 44 45 45 44 44 44 44 43 43 42 42 41 41 41 40 41 41 41 40 40
19 21 21 22 24 24 26 28 27 29 29 30 31 32 34 35 36 38 39 39 39 40 41 39 41 43 43 43 44 45 45 45 45 45 44 44 45 44 42 41 40 40 40 41 40 40 40 40 40
18 18 19 20 22 23 24 27 27 30 30 31 31 31 33 34 35 36 37 37 38 40 41 39 39 41 42 43 43 45 46 45 45 45 44 44 45 45 44 43 40 40 40 39 39 40 40 40 40
17 18 18 19 20 22 22 25 26 28 29 30 30 31 32 33 34 36 37 36 37 38 41 41 39 39 41 41 42 43 44 44 46 46 45 44 45 46 44 42 42 41 41 40 40 41 41 40 41
17 18 19 19 19 20 21 22 23 24 26 28 28 29 30 32 33 34 35 36 37 38 40 42 41 40 42 43 43 43 42 43 46 45 44 44 44 44 43 43 42 42 41 40 40 41 41 41 42
17 18 18 18 18 18 19 20 21 21 22 24 25 27 30 30 31 33 34 36 36 37 38 39 40 40 41 42 41 41 41 42 44 44 43 41 41 42 43 43 43 42 41 41 41 41 41 42 42
17 17 18 18 17 17 17 18 20 20 21 22 24 25 27 29 31 32 33 34 35 36 37 38 38 39 40 41 41 41 41 41 42 42 43 42 41 41 43 43 43 42 42 42 41 40 41 42 43
18 18 18 17 18 18 17 17 18 19 20 21 22 24 25 27 29 31 31 32 34 35 36 37 38 39 40 40 40 40 40 40 40 40 41 41 40 40 40 41 41 41 41 41 40 40 40 40 41
18 18 17 18 18 19 19 17 18 19 20 21 22 23 24 25 26 27 29 31 32 33 34 36 38 38 39 38 38 39 40 41 39 39 39 40 40 39 39 39 39 39 39 39 39 39 40 40 40
19 18 18 19 20 20 20 20 20 20 21 22 22 22 23 23 23 24 26 28 30 32 33 35 36 37 37 37 37 38 39 40 41 39 38 39 39 39 39 39 38 38 38 39 40 40 40 39 39
Wind_Direction
244 245 245 245 245 245 245 245 243 242 243 243 243 244 245 245 245 246 247 247 248 248 247 247 246 247 249 249 249 250 250 251 252 251 249 250 251 251 250 249 249 252 256 257 259 264 268 271 275
244 244 245 245 246 246 245 244 244 243 244 244 244 244 244 245 245 246 247 248 249 249 249 250 249 247 247 248 249 251 250 250 251 251 251 251 251 251 250 250 252 253 255 257 258 262 266 270 274
244 244 244 246 246 246 246 245 245 245 245 244 245 244 244 245 246 247 247 247 248 248 249 249 249 249 247 247 248 250 250 250 250 250 251 251 252 253 253 252 253 253 255 256 258 260 263 267 271
244 244 244 244 245 246 247 247 247 246 246 245 245 245 245 245 246 247 248 247 247 247 249 250 250 250 249 248 247 248 250 251 251 251 251 251 252 253 252 253 254 254 255 255 257 259 263 266 268
245 244 244 245 246 247 247 247 247 246 245 244 244 244 245 245 246 247 247 247 247 246 248 251 250 249 247 246 247 246 247 248 250 251 252 251 252 253 253 254 254 255 256 257 258 261 262 265 266
243 243 244 245 246 246 246 245 245 245 245 245 244 245 245 246 246 246 248 248 247 247 248 249 249 249 248 246 246 247 247 247 248 249 251 252 253 254 254 255 255 256 257 258 259 260 262 265 265
243 243 245 246 246 246 246 245 245 245 245 245 246 246 245 246 247 248 250 249 248 248 247 247 248 249 249 247 246 247 247 247 247 249 251 253 253 254 255 255 256 257 258 259 259 261 263 265 267
245 245 246 246 246 246 247 246 246 245 245 245 246 246 245 246 247 248 249 249 248 247 247 247 247 247 249 249 248 247 246 247 247 249 251 253 255 255 255 256 257 258 258 259 260 262 263 265 266
246 246 247 248 248 248 248 247 246 246 246 247 248 247 246 246 248 248 250 249 248 247 247 248 247 247 247 249 249 249 247 247 248 249 251 253 255 256 257 257 257 258 259 260 261 262 264 265 267
247 248 249 250 250 250 249 248 248 247 247 247 248 248 247 246 247 248 248 250 250 249 248 248 246 246 247 248 249 250 250 249 249 250 252 253 255 256 257 258 259 259 260 260 261 262 264 265 267
250 252 251 250 252 250 249 249 249 249 249 248 248 249 248 246 246 247 247 248 249 249 249 249 246 245 246 247 249 250 250 250 250 251 252 254 255 256 257 259 260 259 260 261 261 262 264 265 266
254 254 254 253 251 251 251 251 250 250 249 248 248 247 246 245 245 246 247 247 248 248 248 248 246 245 246 247 248 250 251 250 251 250 251 253 255 256 257 259 260 260 262 262 262 262 263 264 266
255 255 254 253 251 251 251 252 252 250 248 247 246 246 245 244 243 244 246 246 247 248 248 247 247 245 245 246 247 249 250 250 250 250 250 252 253 254 256 258 260 261 262 262 263 263 263 264 266
256 254 254 254 252 251 251 252 252 249 247 246 244 244 244 243 244 244 245 246 246 247 247 248 246 245 245 246 247 249 249 249 249 248 249 250 252 253 255 257 261 262 263 264 264 263 264 264 266
257 254 254 254 254 252 253 253 251 249 247 246 245 244 244 243 243 243 244 247 247 247 248 248 247 245 246 246 246 248 247 247 248 248 249 250 251 252 254 256 259 261 263 265 265 265 265 265 266
256 255 255 255 255 254 254 253 250 249 248 245 244 243 243 243 242 243 244 245 246 247 248 249 248 247 245 245 245 245 245 246 247 248 249 250 251 253 255 256 259 262 262 264 266 266 267 267 267
259 258 259 258 256 254 253 254 250 249 248 246 244 243 243 243 242 243 245 246 246 247 247 248 248 247 245 243 243 245 245 245 246 247 249 250 251 253 255 257 258 261 263 264 266 267 268 268 268
263 262 263 261 259 256 253 254 252 253 250 246 245 244 243 243 243 243 245 247 246 246 246 247 248 247 246 243 241 242 242 244 246 247 249 250 251 253 255 259 260 261 262 263 265 267 268 268 268
266 267 269 265 262 259 256 255 254 253 249 246 245 244 244 244 243 242 245 247 247 246 247 247 247 247 246 244 242 242 243 244 246 248 250 251 252 253 255 259 262 261 263 264 265 267 268 268 268
271 272 273 269 264 262 260 257 256 253 247 245 244 244 244 244 245 244 247 248 250 248 248 249 248 247 245 243 242 242 243 245 247 249 252 254 254 255 256 258 261 263 265 265 266 267 268 268 267
276 277 276 273 267 263 262 258 254 251 248 247 246 246 247 246 247 246 245 247 252 251 249 249 247 246 244 243 242 243 244 245 246 247 251 254 255 256 257 259 261 264 265 266 267 268 268 267 267
285 281 278 274 269 265 264 264 257 253 249 249 248 249 248 248 248 246 246 248 251 252 250 250 247 243 244 245 244 246 245 246 247 248 251 253 255 255 256 258 260 262 263 264 265 266 268 268 268
291 287 280 276 272 269 267 267 262 257 251 250 251 251 250 249 249 248 248 251 251 251 249 248 246 243 245 245 246 247 247 247 247 248 251 252 253 254 256 256 258 260 262 264 265 266 267 268 268
293 291 284 281 278 276 273 271 268 264 260 257 256 254 251 250 250 251 249 252 252 251 249 246 247 245 245 245 247 247 248 248 248 249 251 253 253 254 254 255 257 260 262 265 266 267 267 268 268
294 292 290 287 282 281 283 280 275 270 264 262 258 255 252 252 254 252 251 253 254 254 252 249 249 248 248 248 248 248 248 249 248 249 251 252 253 253 252 254 256 259 263 266 268 267 269 269 268
300 295 290 289 287 286 288 284 280 277 271 267 262 256 253 254 255 253 253 255 256 255 252 250 250 250 250 249 249 248 248 249 249 248 249 250 252 255 255 255 257 260 264 267 270 270 270 270 268
303 299 295 291 294 295 291 286 283 278 275 272 267 260 257 256 256 256 254 254 256 255 252 250 249 249 250 249 249 249 249 249 248 247 249 251 254 257 256 257 258 260 264 268 270 272 271 270 268
308 305 299 294 296 295 291 287 285 283 277 272 268 264 260 259 257 256 254 255 256 255 251 250 251 251 250 251 250 249 249 249 248 247 249 251 255 258 258 259 260 262 265 268 270 270 271 270 268
311 306 300 298 297 297 293 290 287 284 278 273 270 268 265 263 262 258 256 256 258 256 253 251 252 253 251 251 250 249 249 248 249 248 250 252 255 257 259 259 261 263 265 268 269 269 271 270 269
313 306 299 298 299 297 292 289 285 280 279 278 275 272 269 266 265 263 260 259 259 257 254 253 252 252 251 251 251 251 250 249 250 252 254 254 255 258 258 258 261 264 266 267 270 271 271 271 271
Height
5817 5819 5821 5823 5825 5826 5827 5832 5834 5837 5838 5840 5840 5841 5842 5844 5846 5850 5851 5850 5851 5852 5853 5854 5855 5856 5857 5858 5859 5859 5860 5861 5862 5863 5863 5863 5864 5864 5865 5865 5865 5865 5866 5866 5866 5865 5865 5865 5864
5810 5812 5815 5816 5817 5818 5822 5826 5829 5831 5833 5833 5834 5834 5836 5838 5841 5843 5844 5845 5847 5848 5849 5850 5851 5852 5853 5854 5855 5856 5857 5858 5859 5860 5860 5861 5861 5861 5862 5862 5863 5863 5863 5863 5863 5863 5863 5863 5862
5802 5804 5807 5808 5809 5812 5816 5820 5823 5825 5826 5827 5827 5828 5830 5833 5835 5837 5839 5840 5842 5843 5844 5845 5846 5847 5848 5849 5850 5852 5853 5854 5855 5856 5857 5858 5858 5858 5859 5859 5859 5860 5860 5860 5861 5860 5860 5860 5860
5795 5797 5799 5801 5802 5806 5810 5813 5816 5818 5819 5820 5821 5822 5824 5827 5830 5832 5833 5835 5836 5838 5839 5840 5841 5842 5843 5844 5845 5847 5848 5850 5851 5852 5853 5854 5855 5855 5855 5856 5856 5857 5857 5857 5857 5857 5857 5857 5857
5786 5788 5790 5792 5795 5800 5803 5805 5807 5809 5811 5813 5814 5816 5818 5821 5823 5825 5827 5829 5830 5832 5833 5834 5835 5836 5837 5838 5840 5841 5843 5844 5846 5847 5849 5850 5850 5851 5852 5852 5853 5853 5853 5854 5854 5853 5853 5853 5853
5778 5779 5782 5784 5789 5793 5795 5798 5800 5802 5804 5806 5808 5810 5812 5814 5817 5819 5820 5822 5824 5825 5827 5828 5829 5830 5831 5832 5834 5835 5837 5839 5841 5842 5843 5845 5846 5847 5847 5847 5848 5849 5849 5849 5850 5850 5850 5850 5849
5770 5771 5774 5778 5782 5784 5787 5789 5791 5794 5797 5799 5801 5803 5805 5808 5810 5812 5814 5815 5817 5819 5820 5821 5823 5824 5825 5826 5828 5829 5831 5833 5835 5836 5838 5839 5841 5841 5842 5842 5843 5844 5844 5845 5845 5845 5845 5845 5845
5761 5764 5766 5769 5772 5776 5778 5780 5782 5785 5788 5791 5793 5795 5798 5801 5802 5804 5806 5808 5810 5811 5813 5814 5816 5817 5819 5820 5821 5823 5825 5826 5828 5830 5832 5833 5834 5835 5836 5837 5838 5838 5839 5839 5840 5840 5840 5840 5840
5752 5755 5757 5761 5763 5767 5769 5771 5773 5776 5778 5781 5784 5786 5789 5792 5793 5795 5798 5800 5803 5804 5806 5807 5809 5810 5812 5813 5815 5817 5818 5820 5822 5824 5825 5827 5828 5829 5830 5831 5831 5832 5833 5833 5834 5834 5834 5835 5835
5743 5745 5749 5753 5755 5757 5759 5761 5763 5765 5768 5771 5774 5776 5779 5782 5784 5786 5788 5791 5794 5796 5798 5799 5801 5803 5805 5807 5808 5810 5812 5813 5815 5817 5819 5820 5821 5822 5823 5824 5825 5826 5826 5827 5827 5828 5828 5828 5829
5735 5737 5740 5743 5744 5746 5748 5750 5752 5754 5758 5761 5764 5766 5768 5771 5774 5776 5778 5781 5784 5787 5789 5791 5793 5795 5797 5799 5801 5802 5804 5806 5808 5810 5811 5812 5814 5815 5816 5816 5817 5818 5819 5820 5821 5821 5821 5822 5822
5726 5728 5730 5732 5733 5735 5736 5738 5741 5743 5747 5749 5752 5754 5758 5761 5764 5766 5769 5772 5774 5777 5780 5782 5784 5786 5788 5790 5793 5794 5796 5798 5800 5802 5803 5804 5806 5807 5808 5809 5810 5811 5812 5812 5813 5814 5814 5815 5815
5718 5720 5720 5722 5723 5724 5726 5727 5729 5732 5735 5737 5740 5743 5747 5751 5754 5756 5759 5761 5764 5767 5770 5772 5775 5777 5779 5782 5784 5786 5788 5789 5791 5793 5795 5796 5798 5800 5801 5802 5802 5803 5804 5805 5805 5806 5806 5807 5808
5710 5711 5711 5712 5714 5715 5716 5717 5718 5722 5724 5727 5730 5733 5736 5740 5743 5746 5749 5751 5754 5757 5760 5762 5765 5767 5770 5772 5774 5777 5779 5781 5783 5785 5787 5788 5790 5792 5793 5795 5795 5796 5796 5797 5797 5798 5798 5799 5800
5703 5703 5704 5704 5705 5706 5707 5708 5709 5713 5715 5717 5721 5724 5727 5730 5733 5736 5739 5742 5744 5747 5750 5752 5754 5757 5759 5762 5765 5767 5770 5772 5774 5776 5778 5780 5781 5783 5785 5787 5788 5788 5788 5789 5789 5789 5790 5791 5791
5696 5696 5696 5697 5697 5698 5699 5700 5703 5704 5705 5708 5712 5715 5717 5721 5724 5727 5729 5731 5734 5737 5740 5742 5744 5746 5749 5752 5755 5758 5761 5763 5765 5767 5770 5771 5773 5774 5777 5779 5779 5780 5781 5781 5781 5781 5782 5782 5782
5688 5689 5689 5690 5690 5690 5690 5691 5695 5695 5696 5699 5703 5706 5709 5712 5715 5717 5719 5720 5723 5726 5729 5731 5733 5736 5738 5742 5745 5749 5751 5754 5756 5758 5761 5762 5764 5766 5768 5769 5771 5771 5772 5772 5773 5773 5773 5773 5774
5683 5683 5683 5683 5683 5683 5682 5684 5686 5687 5688 5691 5694 5697 5700 5703 5706 5708 5710 5711 5713 5715 5718 5721 5722 5725 5728 5731 5735 5739 5742 5745 5747 5750 5752 5754 5756 5757 5759 5760 5761 5762 5763 5764 5763 5764 5764 5764 5764
5677 5677 5677 5677 5676 5676 5676 5677 5678 5679 5680 5682 5685 5688 5691 5694 5697 5699 5700 5702 5703 5705 5708 5710 5712 5715 5717 5721 5725 5729 5732 5736 5739 5741 5744 5745 5747 5748 5750 5751 5752 5753 5754 5754 5754 5754 5755 5755 5755
5671 5671 5670 5670 5669 5668 5669 5669 5670 5671 5672 5674 5676 5679 5682 5685 5687 5690 5692 5692 5694 5696 5698 5701 5703 5705 5707 5711 5716 5720 5723 5726 5730 5733 5735 5736 5738 5739 5741 5742 5743 5744 5744 5744 5744 5745 5745 5745 5746
5666 5665 5665 5664 5663 5662 5662 5663 5663 5664 5665 5666 5668 5671 5674 5676 5679 5681 5682 5683 5685 5687 5689 5691 5694 5696 5699 5702 5706 5710 5714 5717 5720 5723 5725 5727 5728 5730 5732 5733 5734 5734 5735 5735 5736 5736 5736 5737 5737
5662 5661 5659 5658 5657 5656 5656 5655 5657 5658 5659 5660 5662 5663 5666 5668 5669 5671 5673 5675 5676 5678 5679 5681 5684 5687 5690 5693 5698 5701 5704 5708 5710 5713 5715 5717 5719 5721 5722 5724 5724 5725 5725 5726 5726 5727 5727 5728 5728
5658 5656 5655 5653 5651 5651 5650 5648 5651 5651 5651 5654 5655 5656 5658 5659 5660 5662 5664 5666 5667 5668 5669 5672 5675 5679 5682 5685 5688 5691 5695 5698 5701 5703 5705 5707 5709 5711 5713 5714 5715 5715 5716 5717 5717 5718 5718 5719 5720
5653 5652 5650 5648 5646 5645 5645 5642 5642 5643 5644 5646 5647 5648 5649 5650 5652 5653 5655 5657 5658 5659 5661 5663 5666 5670 5672 5675 5677 5681 5685 5688 5691 5694 5695 5697 5699 5701 5703 5704 5706 5706 5707 5708 5709 5709 5709 5710 5710
5649 5648 5645 5643 5641 5640 5639 5636 5637 5636 5637 5637 5638 5640 5641 5642 5643 5645 5646 5648 5650 5651 5653 5655 5658 5661 5663 5666 5668 5672 5674 5677 5681 5684 5686 5688 5690 5692 5693 5694 5696 5697 5698 5699 5699 5700 5700 5700 5700
5645 5643 5641 5639 5637 5636 5634 5632 5633 5631 5631 5630 5631 5632 5633 5634 5635 5636 5638 5640 5641 5642 5644 5646 5649 5651 5653 5656 5659 5662 5665 5667 5670 5673 5676 5678 5680 5682 5683 5685 5686 5688 5689 5690 5690 5691 5691 5690 5690
5641 5639 5637 5635 5632 5631 5629 5628 5628 5626 5625 5625 5625 5626 5626 5627 5628 5628 5629 5631 5632 5633 5635 5637 5640 5642 5644 5646 5649 5652 5655 5657 5660 5663 5666 5668 5670 5672 5673 5675 5677 5678 5680 5680 5681 5681 5681 5681 5681
5638 5635 5633 5631 5628 5626 5626 5624 5624 5622 5621 5620 5620 5620 5620 5620 5621 5621 5622 5623 5624 5625 5626 5629 5631 5633 5635 5637 5639 5642 5645 5647 5650 5654 5656 5658 5660 5662 5664 5666 5667 5669 5670 5671 5672 5672 5671 5671 5671
5634 5632 5628 5626 5624 5622 5620 5623 5619 5617 5616 5615 5614 5614 5613 5614 5614 5614 5614 5615 5616 5617 5618 5620 5622 5624 5626 5628 5630 5633 5635 5638 5640 5644 5646 5649 5651 5653 5654 5656 5658 5660 5661 5662 5662 5662 5662 5662 5661
5629 5627 5625 5623 5620 5618 5616 5619 5615 5612 5610 5609 5608 5607 5607 5607 5607 5607 5608 5608 5609 5610 5611 5613 5614 5616 5618 5619 5621 5623 5626 5628 5631 5634 5637 5639 5642 5644 5646 5647 5649 5650 5652 5652 5652 5652 5652 5652 5652